Prefeitura Municipal de Itajaí

Programação de Navios

Navios Atracados (Vessels Berthed)
Berço (Berth)Navio (Vessel)ViagemComp (L.O.A.)(m)Classe (Class)Atracação (ATB)Previsão Saída (ETD)Agência (Agent)
BRASKARNE - 01LOCAR - I74.8General Cargo Ship28/06/2019 16:30PROAMAR ITAJAI
BARRA DO RIO - 01NB COMANDANTE VARELLA - H1800037.5116/01/2020 17:0020/01/2020 09:00
PORTONAVE - 03KOTA LAZIM0032W260.7Container Ship19/01/2020 09:0020/01/2020 02:30UNIMAR - ITAJAI
APMT ITAJAI - 02BOMAR RESOLVE043N207.46Container Ship19/01/2020 11:1520/01/2020 01:30CMA CGM DO BRASIL AGÊNCIA - ITAJAI
PORTONAVE - 02CMA CGM JACQUES JUNIOR0AA51W1MA299.89Container Ship19/01/2020 14:0020/01/2020 13:00CMA CGM DO BRASIL AGÊNCIA - ITAJAI
Navios ao Largo (Anchored Vessels)
Berço (Berth)Navio (Vessel)ViagemComp (L.O.A.)(m)Classe (Class)Chegada Largo (ATA)Previsão Atracação (ETB)Agência (Agent)
Navios Esperados (Expected Vessels)
Berço (Berth)Navio (Vessel)ViagemComp (L.O.A.)(m)Classe (Class)Previsão Chegada (ETA)Previsão Atracação (ETB)Agência (Agent)
MAERSK LOTA952N299.9Container Ship28/12/2019 13:00
LOUIS S04K53E1MA220.31Container Ship05/01/2020 13:00
JUMBO KINETIC152.36General Cargo Ship18/01/2020 08:0020/01/2020 12:00UNIMAR - ITAJAI
TEPORTI - 01JUMBO KINETIC152.36General Cargo Ship18/01/2020 08:0020/01/2020 06:00UNIMAR - ITAJAI
APMT ITAJAI - 02KOTA LAZIM0032E260.7Container Ship20/01/2020 02:0020/01/2020 03:00UNIMAR - ITAJAI
APMT ITAJAI - 01MAERSK LANCO003E299.9Container Ship20/01/2020 05:0020/01/2020 09:00MAERSK BRASMAR ITAJAI /0003-67 (COD 2052)
EXPRESS BRAZIL0GB52N1MA222.5Container Ship20/01/2020 06:0020/01/2020 08:00CMA CGM DO BRASIL AGÊNCIA - ITAJAI
MSC CATERINANA003R299.95Container Ship20/01/2020 06:0020/01/2020 07:00MSC ITAJAÍ
MONTE VERDE952S-004N272Container Ship21/01/2020 05:0021/01/2020 07:00MAERSK BRASMAR ITAJAI /0003-67 (COD 2052)
SYMI I948E299.92Container Ship22/01/2020 06:0022/01/2020 06:30ROCHAMAR ITAJAÍ
UASC ZAMZAM001299.92Container Ship23/01/2020 06:0023/01/2020 08:00ROCHAMAR ITAJAÍ
MERCOSUL GUARANI0PC48S1RC207.4Container Ship23/01/2020 06:0023/01/2020 07:00LACHMANN
MSC GISELLEFI950A299.9Container Ship23/01/2020 08:0024/01/2020 07:00MSC ITAJAÍ
MAERSK LETICIA950W299.9Container Ship23/01/2020 08:0023/01/2020 10:00LACHMANN AGENCIA MAR
MERCOSUL SANTOS0BC4AN1RC210.49Container Ship23/01/2020 12:0023/01/2020 13:00LACHMANN
SAN FRANCISCA004E299.9Container Ship23/01/2020 14:0024/01/2020 09:00MAERSK BRASMAR ITAJAI /0003-67 (COD 2052)
TUBUL1951N299.96Container Ship24/01/2020 06:0024/01/2020 06:30ROCHAMAR ITAJAÍ
APMT ITAJAI - 02MAERSK LINS004N299.99Container Ship24/01/2020 07:0024/01/2020 09:00MAERSK BRASIL BRASMAR
PORTO PUBLICO ITAJAI - 04MSC SINFONIASX08274.9Passenger Ship25/01/2020 06:0025/01/2020 07:00MSC NAVEGANTES
CSAV TRAIGUENMM003R299.9Container Ship25/01/2020 06:3025/01/2020 07:00ROCHAMAR ITAJAÍ
KOTA LEMBAH0176E266Container Ship25/01/2020 10:0025/01/2020 12:00UNIMAR - ITAJAI
APMT ITAJAI - 02CAROLINA STAR04K59E1MA243.13Container Ship25/01/2020 13:0025/01/2020 15:00CMA CGM DO BRASIL AGÊNCIA - ITAJAI
ALDEBARAN059N207.3Container Ship26/01/2020 06:0026/01/2020 08:00LOG-IN - ITAJAI
MSC VIDHIUA003R277.28Container Ship26/01/2020 13:0026/01/2020 15:00MSC ITAJAÍ
MSC ARICANA004R299.18Container Ship27/01/2020 06:0027/01/2020 07:00MSC ITAJAÍ
CONTI LYON005N299.97Container Ship27/01/2020 13:0027/01/2020 20:00MSC ITAJAÍ
LETAVIA0GB54N1MA220.4Container Ship28/01/2020 05:0028/01/2020 07:00CMA CGM DO BRASIL AGÊNCIA - ITAJAI
KOTA LANGSAR0070W/E260.48Container Ship28/01/2020 18:0028/01/2020 19:00UNIMAR - ITAJAI
MSC AZOVFI004R299.9Container Ship29/01/2020 14:0029/01/2020 17:00MSC ITAJAÍ
MSC NAOMIMM004R299.95Container Ship30/01/2020 01:0001/02/2020 09:00MSC ITAJAÍ
MAERSK LETICIA005E299.9Container Ship30/01/2020 14:0031/01/2020 08:00MAERSK BRASMAR ITAJAI /0003-67 (COD 2052)
CMA CGM JACQUES JUNIOR0AA52E1MA299.89Container Ship30/01/2020 15:0030/01/2020 17:00CMA CGM DO BRASIL AGÊNCIA - ITAJAI
MSC SOFIA CELESTENA001A299.95Container Ship30/01/2020 17:0030/01/2020 19:00MSC ITAJAÍ
MSC CAROLINAUA004R274.67Container Ship31/01/2020 13:0031/01/2020 15:00MSC ITAJAÍ
KOTA LEMBAH0107W/E266Container Ship31/01/2020 20:0031/01/2020 21:00UNIMAR - ITAJAI
PORTO PUBLICO ITAJAI - 04MSC SINFONIASX09274.9Passenger Ship01/02/2020 06:0001/02/2020 07:00MSC NAVEGANTES
Limitado pela data de previsão de chegada (ETA) até os próximos 15 dias.
Rua Blumenau, 05 | CEP 88.305-101 | Centro | Itajaí | Santa Catarina | Brasil
Telefone: [+55] 47 3341 8000